This demonstration page uses our WeatherBlox Daily Observations layout. Learn more.

Left ArrowRight Arrow

39.51506, -84.39828

Hourly Observations for March 22, 2020

Temp ( °F °C ) Dew Point ( °F °C ) Humidity (%) Winds ( mph kmh ) Pressure ( in mb ) Visibility ( mi km ) Precip ( " mm )
12:15 am 00:15 Cloudy 33 0.3 23 -5.2 67 67 NE 12 19 30.55 1035 10 16.0934 0 0
12:35 am 00:35 Cloudy 32 0.1 23 -5 69 69 NE 10 17 30.55 1034 10 16.0934 0 0
12:55 am 00:55 Cloudy 32 0 22 -5.3 68 68 NE 13 20 30.55 1034 10 16.0934 0 0
1:15 am 01:15 Cloudy 31 -0.3 23 -5.2 70 70 NE 10 17 30.55 1034 10 16.0934 0 0
1:35 am 01:35 Partly Cloudy 31 -0.6 22 -5.3 71 71 NE 10 17 30.54 1034 10 16.0934 0 0
1:55 am 01:55 Partly Cloudy 31 -0.7 23 -5.1 72 72 NE 9 15 30.55 1034 10 16.0934 0 0
2:15 am 02:15 Clear 30 -0.9 23 -5.1 73 73 ENE 9 15 30.55 1034 10 16.0934 0 0
2:35 am 02:35 Partly Cloudy 30 -1.3 22 -5.3 75 75 ENE 8 13 30.55 1035 10 16.0934 0 0
2:55 am 02:55 Clear 30 -1.2 23 -5.2 75 75 NE 8 13 30.55 1035 10 16.0934 0 0
3:15 am 03:15 Clear 30 -1.3 23 -5.1 76 76 NNE 6 9 30.55 1035 10 16.0934 0 0
3:35 am 03:35 Clear 29 -1.4 23 -5 77 77 NE 8 13 30.55 1035 10 16.0934 0 0
3:55 am 03:55 Clear 29 -1.6 23 -4.9 78 78 NE 8 13 30.55 1035 10 16.0934 0 0
4:15 am 04:15 Clear 29 -1.4 24 -4.7 79 79 NE 8 13 30.54 1034 10 16.0934 0 0
4:35 am 04:35 Clear 29 -1.5 23 -4.9 78 78 NE 9 15 30.54 1034 10 16.0934 0 0
4:55 am 04:55 Clear 29 -1.7 23 -4.8 80 80 NE 8 13 30.54 1034 10 16.0934 0 0
5:15 am 05:15 Clear 29 -1.7 23 -5 78 78 NE 7 11 30.54 1034 10 16.0934 0 0
5:35 am 05:35 Clear 29 -1.9 23 -5 80 80 NE 8 13 30.54 1034 10 16.0934 0 0
5:55 am 05:55 Clear 28 -2 23 -5 80 80 NE 9 15 30.55 1035 10 16.0934 0 0
6:15 am 06:15 Clear 28 -2 23 -5.1 80 80 NE 8 13 30.55 1035 10 16.0934 0 0
6:35 am 06:35 Clear 28 -2.1 23 -5.1 80 80 NE 8 13 30.54 1034 10 16.0934 0 0
6:55 am 06:55 Clear 28 -2.3 23 -5 82 82 NNE 8 13 30.54 1034 10 16.0934 0 0
7:15 am 07:15 Clear 27 -2.7 23 -5.1 84 84 NE 7 11 30.54 1034 10 16.0934 0 0
7:35 am 07:35 Clear 27 -2.6 23 -5.2 83 83 NNE 6 9 30.55 1035 10 16.0934 0 0
7:55 am 07:55 Sunny 27 -2.6 23 -5.1 83 83 NNE 6 9 30.55 1035 10 16.0934 0 0
8:15 am 08:15 Sunny 28 -2.3 23 -5.1 81 81 NNE 6 9 30.56 1035 10 16.0934 0 0
8:35 am 08:35 Sunny 29 -1.7 24 -4.7 80 80 NE 6 9 30.56 1035 10 16.0934 0 0
8:55 am 08:55 Sunny 30 -1.2 24 -4.7 77 77 NE 7 11 30.56 1035 10 16.0934 0 0
9:15 am 09:15 Sunny 31 -0.6 24 -4.2 77 77 NE 8 13 30.56 1035 10 16.0934 0 0
9:35 am 09:35 Sunny 33 0.4 26 -3.6 75 75 ENE 8 13 30.55 1035 10 16.0934 0 0
9:55 am 09:55 Sunny 34 1.1 25 -3.8 70 70 E 9 15 30.55 1035 10 16.0934 0 0
10:15 am 10:15 Sunny 35 1.7 26 -3.6 68 68 E 12 19 30.54 1034 10 16.0934 0 0
10:35 am 10:35 Sunny 37 2.5 26 -3.3 66 66 E 12 19 30.52 1033 10 16.0934 0 0
10:55 am 10:55 Sunny 38 3.2 27 -3 64 64 E 9 15 30.51 1033 10 16.0934 0 0
11:15 am 11:15 Sunny 39 3.7 27 -2.8 63 63 E 7 11 30.51 1033 10 16.0934 0 0
11:35 am 11:35 Sunny 40 4.5 28 -2.3 62 62 E 13 20 30.49 1033 10 16.0934 0 0
11:55 am 11:55 Partly Cloudy 41 5 28 -2 61 61 E 10 17 30.49 1033 10 16.0934 0 0
12:15 pm 12:15 Sunny 40 4.6 28 -2 63 63 ESE 6 9 30.48 1032 10 16.0934 0 0
12:35 pm 12:35 Sunny 42 5.5 29 -1.7 60 60 ESE 7 11 30.47 1032 10 16.0934 0 0
12:55 pm 12:55 Partly Cloudy 43 6 29 -1.5 59 59 ESE 10 17 30.47 1032 10 16.0934 0 0
1:15 pm 13:15 Partly Cloudy 43 6 29 -1.6 59 59 E 9 15 30.46 1031 10 16.0934 0 0
1:35 pm 13:35 Sunny 43 6.3 29 -1.9 56 56 ESE 10 17 30.44 1031 10 16.0934 0 0
1:55 pm 13:55 Partly Cloudy 44 6.4 29 -1.7 57 57 E 9 15 30.41 1030 10 16.0934 0 0
2:15 pm 14:15 Partly Cloudy 43 6 29 -1.6 59 59 ESE 10 17 30.4 1029 10 16.0934 0 0
2:35 pm 14:35 Cloudy 43 5.9 29 -1.6 59 59 SE 9 15 30.4 1029 10 16.0934 0 0
2:55 pm 14:55 Cloudy 43 6 29 -1.6 59 59 E 8 13 30.38 1029 10 16.0934 0 0
3:15 pm 15:15 Cloudy 43 6.1 29 -1.5 59 59 E 10 17 30.36 1028 10 16.0934 0 0
3:35 pm 15:35 Cloudy 43 6 29 -1.5 59 59 ENE 10 17 30.35 1028 10 16.0934 0 0
3:55 pm 15:55 Cloudy with Light Rain 42 5.4 31 -0.6 66 66 E 8 13 30.36 1028 10 16.0934 0 0
4:15 pm 16:15 Cloudy with Rain 42 5.5 31 -0.6 65 65 E 9 15 30.35 1028 10 16.0934 0 0
4:35 pm 16:35 Cloudy with Light Rain 40 4.5 33 0.4 75 75 ENE 9 15 30.34 1028 10 16.0934 0 0
4:55 pm 16:55 Cloudy with Rain 40 4.5 34 1 78 78 Calm 30.36 1028 7 11.26538 0 0
5:15 pm 17:15 Cloudy with Light Rain 40 4.3 35 1.6 83 83 ENE 7 11 30.33 1027 10 16.0934 0 0
5:35 pm 17:35 Cloudy with Light Rain 40 4.3 36 2 85 85 NE 7 11 30.32 1027 10 16.0934 0 0
5:55 pm 17:55 Cloudy with Light Rain 39 4.1 36 2.2 88 88 N 7 11 30.32 1027 7 11.26538 0 0
6:15 pm 18:15 Cloudy with Light Rain 39 3.9 36 2.1 88 88 N 8 13 30.32 1027 10 16.0934 0 0
6:35 pm 18:35 Cloudy with Light Rain 39 3.9 36 2.3 89 89 NNE 3 6 30.32 1027 7 11.26538 0 0
6:55 pm 18:55 Partly Cloudy with Light Rain 39 4 36 2.2 88 88 NE 7 11 30.32 1027 10 16.0934 0 0
7:15 pm 19:15 Mostly Cloudy 39 4.1 36 2.4 89 89 NE 7 11 30.3 1026 10 16.0934 0 0
7:35 pm 19:35 Cloudy 39 4.1 37 2.5 89 89 ENE 5 7 30.29 1026 10 16.0934 0 0
7:55 pm 19:55 Mostly Cloudy 39 4.1 36 2.4 89 89 NE 8 13 30.27 1025 10 16.0934 0 0
8:15 pm 20:15 Cloudy 39 4.1 36 2.3 88 88 NE 9 15 30.26 1025 10 16.0934 0 0
8:35 pm 20:35 Cloudy 40 4.2 36 2.1 86 86 NE 5 7 30.26 1025 10 16.0934 0 0
8:55 pm 20:55 Cloudy 39 4.1 36 2.2 88 88 NNE 5 7 30.26 1025 10 16.0934 0 0
9:15 pm 21:15 Cloudy 39 4.1 36 2.2 88 88 NNE 7 11 30.26 1025 10 16.0934 0 0
9:35 pm 21:35 Cloudy 39 4.1 36 2 86 86 NNE 8 13 30.25 1025 10 16.0934 0 0
9:55 pm 21:55 Cloudy 39 4.1 36 2 86 86 NNE 6 9 30.25 1025 10 16.0934 0 0
10:15 pm 22:15 Cloudy 39 4.1 36 2.2 88 88 NNE 3 6 30.25 1025 10 16.0934 0 0
10:35 pm 22:35 Cloudy 39 4.1 36 2.2 88 88 Calm 30.24 1024 10 16.0934 0 0
10:55 pm 22:55 Cloudy 39 3.8 36 2.1 89 89 NNE 3 6 30.24 1024 10 16.0934 0 0
11:15 pm 23:15 Mostly Cloudy 38 3.4 36 2 91 91 Calm 30.23 1024 10 16.0934 0 0
11:35 pm 23:35 Cloudy 38 3.1 36 2 93 93 NNW 3 6 30.23 1024 10 16.0934 0 0
11:55 pm 23:55 Cloudy 39 3.8 36 2.3 90 90 Calm 30.22 1023 10 16.0934 0 0

Powered by AerisWeather